OBJECT DM, 63002

Orbit data source: Space-Track

You're viewing an Uncataloged Satellite

Recently launched and/or uncataloged satellites may have evolving metadata. Metadata may include but not limited to: Owner, Maufacturer, Bus, Motor, and Mission.

OBJECT DM, 63002 is a satellite in SSO that was launched on Tue, 14 Jan 2025 UTC via an FALCON 9 launch vehicle from the Air Force Western Test Range (AFWTR). Unknown objects in Earth's orbit typically refer to objects detected orbiting the Earth but have not yet been identified or cataloged. These objects could be anything from previously untracked satellites, spent rocket stages, debris from satellite collisions, or even natural meteoroids temporarily captured by Earth's gravity.

Loading next visibility...
Identifier
63002, 2025-009DM
Orbit
SSO
Country
Flag of TBDTBD
Related business
None
Manufacturer
Unknown
Mission
Operational Amateur Technology
Bus & Motor
Unknown
Mass
Unknown
Launch date (UTC)
2025-01-14 (1 year ago)
Launch vehicle
FALCON 9
Launch site
Air Force Western Test Range (AFWTR)
Object type
Unknown
Shape & HBR
Box, 0.1 m
Radar Cross Section
0.004 m², Small (<0.1 m²)

Expand to show TLE details & history
Last TLE update: 21 hours ago

TLE from 21 hours ago
0 OBJECT DM
1 63002U 25009DM  26034.21194988  .00117378  00000-0  17896-2 0  9994
2 63002  97.4152 122.7384 0002460 291.4523  68.6468 15.54057364116440
Epoch: 2026-02-03T05:05Z
TLE epoch observation values (Epoch: 2026-02-03T05:05:12.469Z)
Latitude
-0.00003°
Longitude
-86.95968°
Altitude
407.423 km
Speed
7.667 km/s
True Right ascension
08h 10m 57s
True Declination
0° 00' 00"
Sunlit
Object was in full shadow at epoch
Visualization orbit readout
Latitude
Unknown
Longitude
Unknown
Altitude
Unknown
Speed
Unknown
Apparent Right ascension
Unknown
Apparent Declination
Unknown
Sunlit
N/A
Visualization observer readout
Local Sidereal Time
04:11:15
Azimuth
Unknown
Elevation
Unknown
Doppler factor
Unknown
Orbital elements
Apogee altitude
403.483 km
Perigee altitude
400.147 km
Semi-major axis
6,779.952 km
Eccentricity
0.00025
Inclination
97.4152°
RAAN
122.7384°
Arg. of periapsis
291.4523°
True anomaly
68.67306°
Mean anomaly
68.6468°
Eccentric anomaly
68.65993°
Mean motion
3.88779 °/min
Orbital period
92.6 mins
BSTAR
0.0017896
Loading maneuver chart data...
Computing Atmospheric mass density...
Loading historical data...
Loading historical data...
Loading historical data...
Loading historical data...
Loading historical data...
Loading historical data...
Loading historical data...

Documentation

Showing up to 5 results
|